Lapse_Rate
4.1 3.6 1.6 0.8 1.2 1.7 1.9 1.8 2.1 2.1 1.9 1.8 1.0 0.2 0.4 0.8 0.9 0.9 1.2 1.2 0.9 0.6 0.2 0.0 -0.0 0.1 0.5 1.0 3.1 3.0 3.0 3.5
3.6 1.5 0.6 0.3 0.0 0.3 0.6 0.8 0.5 1.1 1.0 1.3 1.4 1.0 0.7 0.4 1.2 1.5 1.6 1.6 1.7 1.0 0.5 0.5 0.7 0.4 0.1 0.2 0.8 2.9 4.1 3.5
3.1 1.9 1.1 0.6 -0.3 -0.3 0.0 0.2 0.0 -0.0 0.2 0.3 1.1 1.2 0.4 0.6 1.1 1.5 2.2 2.7 2.9 3.4 2.0 1.4 1.1 0.9 1.2 1.2 1.2 1.5 4.1 3.5
2.2 1.6 0.5 -0.1 0.2 0.1 -0.2 -0.6 -0.6 -0.2 0.4 0.9 0.8 0.6 1.1 0.7 0.3 0.4 1.4 2.8 3.5 3.5 3.1 2.6 2.2 1.9 1.7 1.4 2.0 2.5 2.7 2.3
4.0 3.5 1.6 1.2 -0.3 -0.4 -0.5 -0.2 0.0 0.3 0.1 0.6 0.9 0.5 1.2 0.8 0.9 1.3 2.2 3.3 3.9 4.3 3.9 3.3 2.7 2.5 2.5 2.4 4.0 3.2 3.6 3.7
3.4 3.4 3.3 1.6 -0.0 -0.4 -0.9 0.0 0.2 0.1 0.6 0.5 -0.2 0.2 0.7 1.1 1.5 2.5 3.2 3.9 4.5 4.1 3.7 3.3 3.0 2.9 3.1 3.5 3.6 3.5 4.0 5.0
3.9 4.1 3.4 2.2 1.1 -0.2 -0.3 0.4 0.7 0.9 1.1 0.8 0.5 1.2 1.5 1.6 2.3 2.8 3.3 3.5 3.7 4.5 4.7 4.2 3.8 3.4 3.5 3.5 3.7 4.0 4.2 4.4
4.7 4.7 3.5 3.6 1.8 0.9 0.8 1.2 1.9 1.7 1.4 1.3 1.2 1.7 2.0 2.4 2.9 3.0 3.4 3.3 3.6 3.9 4.1 4.1 3.7 3.9 4.0 4.1 4.0 4.1 4.4 4.6
4.1 4.1 4.6 3.9 2.5 1.9 2.1 2.3 2.8 2.0 1.8 1.7 1.5 2.1 2.1 2.7 3.1 3.1 3.2 3.6 3.6 4.2 4.4 4.4 4.1 4.3 4.4 4.3 4.3 4.4 4.5 4.5
4.6 4.7 5.0 3.6 2.5 2.2 2.0 2.8 3.0 2.5 2.3 1.6 2.1 2.8 3.2 3.3 3.2 3.0 3.0 3.4 4.3 5.5 5.3 4.7 3.6 4.1 4.3 4.2 4.1 4.5 4.7 4.7
5.7 5.9 4.4 2.7 2.2 1.9 1.9 2.5 2.7 2.8 2.1 2.0 2.9 2.7 3.1 3.3 3.2 3.4 3.6 4.3 5.5 5.4 5.1 4.2 4.8 4.5 4.1 4.0 3.5 3.6 4.2 4.3
5.8 4.9 3.2 2.4 1.9 1.8 2.5 2.6 2.5 2.5 2.3 2.4 2.3 2.4 3.0 3.4 3.5 3.9 5.8 5.9 5.4 5.0 5.0 5.4 6.2 4.6 4.0 3.9 3.9 4.1 4.4 4.5
5.0 4.5 2.9 1.9 1.8 2.1 2.5 2.5 3.0 2.8 2.6 2.5 2.1 2.3 3.6 4.2 4.4 6.2 6.8 6.3 5.1 4.3 5.3 6.7 5.9 5.5 4.3 4.0 3.9 4.4 4.9 4.9
4.4 3.6 3.3 2.9 2.4 2.6 2.6 3.0 3.0 2.8 2.6 2.4 2.1 3.2 5.8 4.8 5.5 6.7 6.6 5.3 4.7 5.3 6.7 6.9 6.7 6.5 5.4 4.7 4.8 5.4 5.7 5.5
4.7 3.9 3.6 3.3 3.1 3.5 3.5 3.6 2.9 2.8 2.8 2.9 3.4 4.4 4.9 5.7 5.7 5.7 5.8 5.5 5.4 4.4 5.0 6.2 6.1 6.2 5.7 5.6 6.6 6.3 6.0 6.5
4.9 4.0 3.1 2.8 3.5 3.8 3.8 3.0 2.8 2.7 3.1 3.8 6.7 6.3 6.3 6.0 5.3 5.1 5.5 5.5 5.0 4.2 4.5 5.6 6.6 6.0 6.3 6.4 6.4 6.5 7.1 6.4
3.1 3.1 3.0 2.9 3.7 3.7 3.1 3.1 3.4 3.2 3.6 3.9 7.7 6.9 6.6 5.5 4.9 5.1 5.8 5.3 5.4 5.1 5.7 7.0 6.6 7.1 6.8 6.8 6.7 6.4 6.2 6.6
4.6 4.0 3.9 4.1 4.1 4.2 4.3 4.4 4.5 4.8 5.0 4.6 6.7 7.2 6.7 5.3 6.0 5.9 5.7 5.5 5.4 4.9 6.0 6.5 5.7 5.7 6.5 6.5 6.8 6.5 5.9 5.8
4.1 4.7 5.2 5.6 5.9 5.9 5.6 5.4 5.4 5.1 4.9 4.5 5.9 6.6 5.9 5.7 6.4 5.8 5.4 5.8 5.3 5.2 6.0 6.3 5.2 4.9 5.3 5.5 5.9 5.4 5.3 5.4
Wind_Speed
7 5 6 7 6 6 6 4 3 4 5 7 7 8 10 14 13 14 16 14 15 13 10 11 12 4 4 4 4 2 4 4
6 6 7 8 7 8 7 8 7 4 4 2 2 2 2 3 9 12 14 14 14 13 9 9 9 5 4 5 4 3 2 3
6 6 6 6 8 8 8 7 7 5 4 2 2 2 3 3 6 9 10 12 11 9 7 5 6 4 5 5 4 3 3 2
6 7 5 7 8 7 7 6 6 6 5 2 2 3 2 2 2 2 4 7 8 9 9 8 6 4 3 3 3 4 2 3
12 10 9 7 7 7 6 6 6 5 5 2 2 1 1 2 1 1 3 4 6 6 7 8 7 5 4 3 3 2 2 4
13 10 3 3 4 5 5 5 4 4 1 2 2 1 1 1 1 2 2 4 6 7 7 6 5 4 4 5 5 4 2 3
12 5 4 4 1 4 3 3 2 2 1 2 3 1 2 1 2 2 3 2 3 5 6 7 7 6 4 4 4 5 4 3
7 4 4 4 4 3 3 2 0 2 1 1 1 1 3 2 3 2 4 3 2 4 3 4 4 7 8 7 5 5 4 3
2 6 7 5 5 5 4 3 2 2 2 3 3 5 3 2 3 3 4 3 4 5 6 6 8 9 8 6 3 4 4 4
6 6 8 5 5 6 5 2 2 4 4 4 5 5 4 4 6 4 4 5 4 5 7 5 7 7 7 5 3 5 4 5
8 9 4 5 6 4 3 2 4 4 5 5 5 5 5 5 5 6 6 5 4 5 6 6 5 5 6 5 4 5 5 5
5 4 5 6 3 2 1 2 5 6 6 6 6 5 6 5 4 4 3 4 5 6 6 8 5 6 6 5 5 6 6 7
4 4 4 5 4 4 4 2 2 5 5 5 6 5 5 5 4 5 4 5 6 6 7 7 6 5 6 6 6 6 7 8
1 3 5 4 5 5 4 1 3 5 5 6 6 5 5 5 5 5 5 5 6 6 8 7 7 6 6 7 7 7 7 8
4 4 3 4 5 3 1 1 3 5 5 6 5 5 5 5 5 6 5 5 6 6 7 7 6 7 7 8 7 6 9 8
5 5 7 7 6 5 1 3 5 5 5 6 5 5 5 5 6 6 5 5 6 5 7 8 8 6 5 7 7 8 9 9
7 7 7 8 8 7 4 4 5 5 5 6 6 5 4 6 6 6 5 5 7 7 8 8 9 6 13 13 12 8 8 8
8 8 8 8 8 6 5 4 4 5 6 7 8 7 6 6 5 5 6 4 7 7 8 8 8 8 14 15 16 8 8 8
6 7 8 9 8 7 4 4 4 5 7 7 8 8 8 8 8 8 6 4 6 7 9 9 9 7 15 17 15 10 9 10
Wind_Direction
204 172 110 104 99 97 91 74 74 86 77 93 78 72 60 51 45 38 41 39 38 35 25 17 11 8 8 353 302 231 236 250
106 111 117 108 74 89 76 74 43 70 63 40 61 63 56 47 43 41 43 35 29 29 15 9 10 14 0 359 328 319 279 242
125 126 106 90 100 89 80 74 61 53 59 48 52 67 79 75 50 47 35 26 21 15 9 358 1 355 357 358 9 334 302 309
95 91 86 96 93 90 85 76 72 61 54 33 26 40 32 35 14 4 15 16 6 2 1 359 351 357 344 338 331 355 316 311
47 31 49 44 63 71 71 73 69 61 50 45 87 151 209 240 210 269 319 354 340 341 344 346 336 332 328 321 336 305 291 289
84 71 35 62 77 85 93 90 82 74 97 127 101 105 272 273 289 331 330 325 339 351 344 333 319 318 300 299 306 307 288 285
91 112 130 95 197 95 101 113 82 67 70 56 93 92 305 332 309 322 309 290 304 325 327 319 313 305 295 287 280 274 279 271
54 37 303 216 193 186 191 181 89 272 31 1 32 335 267 267 282 277 300 306 282 298 295 298 289 291 287 283 272 263 265 259
190 279 276 252 200 216 206 205 238 267 320 325 318 274 277 278 268 277 283 269 283 288 295 291 285 288 286 287 274 266 260 257
212 254 234 218 208 215 204 226 327 332 329 324 289 277 289 285 295 290 286 279 285 292 300 292 290 294 282 281 271 268 257 260
244 226 211 214 218 196 196 347 354 319 326 304 286 300 307 308 316 314 307 298 283 289 294 291 281 290 284 281 279 272 262 265
196 220 219 218 208 177 231 288 354 341 325 311 309 314 325 330 326 311 305 293 296 307 300 289 280 280 281 279 267 269 262 263
160 235 237 220 215 224 236 13 331 352 326 330 336 333 342 350 342 316 325 324 317 300 299 295 285 296 294 281 280 275 271 269
258 244 244 240 232 241 231 240 10 348 353 354 346 343 328 336 297 307 319 309 297 308 309 300 295 283 290 289 272 274 280 275
291 298 294 268 242 265 259 3 16 353 356 342 321 336 321 304 302 306 305 328 306 317 315 316 307 303 285 279 281 278 272 260
3 27 26 20 2 342 12 58 17 356 350 319 324 313 328 328 335 311 308 323 305 322 315 314 310 283 281 288 292 291 290 275
51 44 35 19 2 349 74 56 23 7 339 318 330 322 342 340 324 323 309 324 330 323 334 323 323 316 302 307 298 286 279 275
28 23 22 14 3 5 21 23 5 355 345 328 335 345 344 320 309 330 333 322 327 327 315 310 316 302 313 319 312 292 281 273
41 25 21 7 357 357 349 359 356 343 343 341 338 344 342 328 327 321 323 339 329 320 320 318 308 308 309 309 304 291 275 269